FW9836 Weather Reports


time (UTC)temp
C
wind
direction
speed
KPH
gust
KPH
rain 1hr
cm
rain 24hr
cm
rain mn
cm
humidity
%
barometer
mb
20260508100324 3 340 1.6 6.4 0.00 0.00 0.00 75 1008.0
20260508094324 2 180 0.0 1.6 0.00 0.00 0.00 77 1007.8
20260508093324 2 337 0.0 0.0 0.00 0.00 0.00 77 1007.8
20260508092324 3 337 0.0 0.0 0.00 0.00 0.00 75 1007.7
20260508091324 3 337 0.0 0.0 0.00 0.00 0.00 74 1007.6
20260508090325 3 337 0.0 0.0 0.00 0.00 0.00 74 1007.5
20260508084422 3 337 0.0 4.8 0.00 0.00 0.00 72 1007.2
20260508083424 2 337 1.6 3.2 0.00 0.00 0.00 76 1007.4
20260508082424 2 337 0.0 1.6 0.00 0.00 0.00 76 1007.4
20260508081425 2 337 0.0 0.0 0.00 0.00 0.00 75 1007.5
20260508075525 3 337 0.0 0.0 0.00 0.00 0.00 72 1007.2
20260508074523 3 180 0.0 3.2 0.00 0.00 0.00 72 1007.1
20260508073525 3 320 0.0 0.0 0.00 0.00 0.00 70 1007.1
20260508072623 3 337 1.6 6.4 0.00 0.03 0.00 72 1007.1
20260508070623 2 337 0.0 0.0 0.00 0.03 0.00 76 1007.1
20260508065624 3 337 0.0 0.0 0.00 0.03 0.00 74 1007.2
20260508064625 3 337 0.0 0.0 0.00 0.03 0.00 72 1007.1
20260508063625 3 337 0.0 0.0 0.00 0.05 0.00 71 1007.2
20260508062624 3 180 0.0 0.0 0.00 0.05 0.00 70 1007.2
20260508061626 3 337 0.0 3.2 0.00 0.05 0.00 69 1007.2
20260508055724 3 180 0.0 3.2 0.00 0.41 0.00 69 1007.5
20260508054822 3 180 0.0 0.0 0.00 0.64 0.00 71 1007.5
20260508053824 4 337 0.0 3.2 0.00 0.66 0.00 69 1007.5
20260508052824 5 180 0.0 0.0 0.00 0.66 0.00 68 1007.5
20260508051923 4 180 0.0 1.6 0.00 0.66 0.00 70 1007.6
20260508050922 4 67 0.0 0.0 0.00 0.66 0.00 70 1007.7
20260508045924 3 67 0.0 0.0 0.00 0.66 0.00 71 1007.8
20260508043926 4 67 0.0 0.0 0.00 0.66 0.00 69 1008.0
20260508043023 5 67 0.0 0.0 0.00 0.66 0.00 66 1007.9
20260508041023 6 101 0.0 1.6 0.00 0.69 0.00 65 1007.9
20260508040036 6 339 1.6 6.4 0.00 0.69 0.00 63 1008.0
20260508035038 6 333 1.6 4.8 0.00 0.69 0.69 63 1008.0
20260508034038 6 337 0.0 3.2 0.00 0.69 0.69 63 1008.2
20260508033039 6 337 0.0 4.8 0.00 0.69 0.69 62 1008.3
20260508032039 6 180 1.6 6.4 0.00 0.71 0.69 59 1008.0
20260508031039 7 337 0.0 1.6 0.00 0.71 0.69 59 1008.1
20260508030038 7 346 4.8 11.3 0.00 0.76 0.69 57 1008.1
20260508025037 7 19 3.2 8.0 0.00 0.76 0.69 56 1008.0
20260508024037 7 217 0.0 0.0 0.00 0.79 0.69 57 1007.9
20260508022037 8 360 0.0 1.6 0.00 0.89 0.69 56 1008.0
20260508021038 8 3 3.2 8.0 0.00 0.97 0.69 56 1008.0
20260508020038 8 3 3.2 6.4 0.00 1.04 0.69 57 1008.1
20260508015037 8 22 0.0 3.2 0.00 1.12 0.69 56 1008.1
20260508014037 9 3 1.6 4.8 0.00 1.19 0.69 55 1008.2
20260508012039 9 342 4.8 8.0 0.00 1.32 0.69 57 1008.1
20260508011037 9 8 4.8 8.0 0.00 1.37 0.69 57 1007.9
20260508010038 10 172 1.6 4.8 0.00 1.40 0.69 57 1007.8
20260508005038 10 18 3.2 6.4 0.00 1.45 0.69 66 1007.8
20260508002136 8 360 0.0 1.6 0.00 1.70 0.69 81 1007.2
20260508001138 8 337 0.0 0.0 0.00 1.80 0.69 79 1007.0
20260507235138 9 247 1.6 4.8 0.00 1.93 0.69 77 1006.5
20260507234138 10 225 0.0 0.0 0.00 1.96 0.69 76 1006.3
20260507233136 10 202 3.2 4.8 0.00 1.98 0.69 75 1006.3
20260507231138 10 202 1.6 6.4 0.00 1.98 0.69 74 1006.0
20260507231037 10 194 1.6 3.2 0.00 1.98 0.69 74 1006.0
20260507230036 10 202 3.2 3.2 0.00 1.98 0.69 73 1005.9
20260507225036 11 202 1.6 6.4 0.00 2.01 0.69 71 1005.7
20260507224036 11 213 1.6 4.8 0.00 2.01 0.69 70 1005.6
20260507223936 11 202 0.0 4.8 0.00 2.03 0.69 69 1005.6
20260507223035 12 202 4.8 8.0 0.00 2.03 0.69 68 1005.6
20260507221136 11 199 4.8 11.3 0.00 2.08 0.69 71 1005.7
20260507220137 11 205 4.8 12.9 0.00 2.08 0.69 73 1005.6
20260507215138 11 224 1.6 6.4 0.00 2.11 0.69 72 1005.6
20260507213235 11 191 4.8 11.3 0.00 2.11 0.69 72 1005.8
20260507212237 11 185 3.2 9.7 0.00 2.11 0.69 71 1005.8
20260507210338 11 189 6.4 16.1 0.00 2.11 0.69 70 1005.7
20260507205337 11 183 4.8 11.3 0.00 2.11 0.69 70 1005.8
20260507203337 12 195 9.7 16.1 0.00 2.11 0.69 68 1005.6
20260507202339 12 207 6.4 16.1 0.00 2.11 0.69 66 1005.5
20260507200438 12 216 6.4 25.7 0.00 2.11 0.69 68 1005.5
20260507195437 12 192 9.7 22.5 0.00 2.11 0.69 68 1005.4
20260507194438 12 191 4.8 16.1 0.00 2.11 0.69 65 1005.6
20260507193537 12 192 6.4 16.1 0.00 2.11 0.69 67 1005.5
20260507192537 12 189 8.0 16.1 0.00 2.11 0.69 68 1005.7
20260507191535 13 197 9.7 20.9 0.00 2.11 0.69 65 1005.6
20260507190539 13 219 9.7 17.7 0.00 2.11 0.69 67 1005.6
20260507185637 13 208 11.3 17.7 0.00 2.11 0.69 68 1005.7
20260507184638 13 234 8.0 20.9 0.00 2.11 0.69 69 1005.7
20260507180637 15 199 11.3 22.5 0.00 2.11 0.69 62 1005.8
20260507175639 14 209 1.6 11.3 0.00 2.11 0.69 63 1005.9
20260507174737 15 199 11.3 19.3 0.00 2.11 0.69 62 1005.9
20260507172835 15 195 4.8 12.9 0.00 2.11 0.69 60 1005.7
20260507171836 15 181 6.4 9.7 0.00 2.11 0.69 56 1005.8
20260507170936 16 199 8.0 14.5 0.00 2.11 0.69 49 1005.7
20260507164938 15 187 3.2 8.0 0.00 2.11 0.69 50 1006.0
20260507164037 15 189 6.4 12.9 0.00 2.11 0.69 48 1006.0
20260507163038 16 197 0.0 8.0 0.00 2.11 0.69 54 1006.0
20260507162135 15 90 0.0 3.2 0.00 2.11 0.69 54 1006.0
20260507160137 15 350 4.8 9.7 0.00 2.11 0.69 56 1006.4
20260507155236 15 189 6.4 11.3 0.00 2.11 0.69 57 1006.6
20260507154238 14 180 1.6 4.8 0.00 2.11 0.69 58 1006.8
20260507153335 14 337 3.2 6.4 0.00 2.11 0.69 60 1006.9
20260507152337 14 186 4.8 8.0 0.00 2.11 0.69 60 1007.0
20260507151435 14 71 1.6 4.8 0.00 2.11 0.69 61 1007.0
20260507150438 13 351 3.2 9.7 0.00 2.11 0.69 61 1006.8
20260507145536 13 8 4.8 6.4 0.00 2.11 0.69 62 1007.1
20260507144538 13 332 8.0 9.7 0.00 2.11 0.69 64 1007.2
20260507143536 12 315 1.6 3.2 0.00 2.11 0.69 67 1007.2
20260507141539 12 304 3.2 6.4 0.00 2.11 0.69 67 1007.5
20260507140538 12 327 1.6 3.2 0.00 2.11 0.69 69 1007.6
20260507135637 12 237 0.0 1.6 0.00 2.11 0.69 71 1007.6
20260507134635 11 252 1.6 8.0 0.00 2.11 0.69 73 1007.7
20260507133652 11 270 3.2 6.4 0.00 2.11 0.69 75 1008.0
20260507132738 10 262 0.0 4.8 0.00 2.11 0.69 75 1008.1
20260507131738 10 317 8.0 12.9 0.00 2.11 0.69 76 1007.8
20260507125739 10 339 1.6 3.2 0.00 2.11 0.69 80 1008.1
20260507123839 9 276 4.8 11.3 0.00 2.11 0.69 86 1007.6
20260507122936 8 67 0.0 0.0 0.00 2.11 0.69 86 1007.3
20260507121937 8 315 3.2 6.4 0.00 2.11 0.69 87 1007.2
20260507121836 8 302 1.6 6.4 0.00 2.11 0.69 87 1007.4
20260507120836 8 347 0.0 1.6 0.00 2.11 0.69 88 1007.4
20260507115837 8 315 0.0 1.6 0.00 2.11 0.69 87 1008.3
20260507114839 8 270 1.6 3.2 0.00 2.11 0.69 88 1007.7
20260507113836 7 199 1.6 6.4 0.00 2.11 0.69 89 1008.3
20260507111838 7 270 0.0 0.0 0.00 2.11 0.69 89 1008.6
20260507110937 7 32 0.0 0.0 0.00 2.11 0.69 91 1008.0
20260507104935 7 292 0.0 3.2 0.00 2.11 0.69 91 1008.1
20260507102938 7 270 1.6 4.8 0.00 2.11 0.69 91 1007.7
20260507101036 7 312 4.8 6.4 0.00 2.11 0.69 93 1007.0